NORTHEAST SUFFOLK  -  Freeze Watch Freeze Watch        NORTHWEST SUFFOLK  -  Freeze Watch Freeze Watch        SOUTHEAST SUFFOLK  -  Freeze Watch Freeze Watch        SOUTHWEST SUFFOLK  -  Freeze Watch Freeze Watch      

Active alerts

Northwest Suffolk
  Details for Northwest Suffolk Freeze Watch
Southwest Suffolk
  Details for Southwest Suffolk Freeze Watch
Northeast Suffolk
  Details for Northeast Suffolk Freeze Watch
Southeast Suffolk
  Details for Southeast Suffolk Freeze Watch


WXM80 ListenWXM80 Stop

You find our weather info also at:

UK Metoffice

WeatherCloud

Weather Underground

Northeastern Weather Network

AWEKAS

Citizen Weather Observer Program (CWOP)

HAMweather, WeatherForYou, PWS Weather


Weather Underground History page Text

Daily Summary for May 15, 2016 Units:  English    Metric   Both
« Previous Day
Next Day »
Daily Weekly Monthly Yearly Custom
  High: Low: Average:
Temperature: 61.2 °F 47.0 °F 53.6 °F
Dew Point: 52.7 °F 32.2 °F 39.8 °F
Humidity: 84 % 39 % 60 %
Wind Speed: 11.5 mph 0.6 mph 5.9 mph
Wind Gust: 22.0 mph - -
Wind:- - West
Pressure: 29.93 in 29.60 in -
Precipitation: 0.00 in    
Historical Graphs
 
 
Tabular Data for May 15, 2016
Time Temperature Dew Point Pressure Wind Wind Speed Wind Gust Humidity Rainfall Rate (Hourly)
00:00 57.5 °F 52.7 °F 29.60 in WSW 6.2 mph 17.0 mph 84 % 0.00 in
00:05 57.4 °F 52.3 °F 29.60 in WSW 4.4 mph 10.4 mph 83 % 0.00 in
00:10 57.3 °F 52.2 °F 29.60 in WSW 4.1 mph 13.8 mph 83 % 0.00 in
00:15 57.2 °F 51.8 °F 29.60 in WSW 3.7 mph 10.0 mph 82 % 0.00 in
00:20 57.0 °F 51.2 °F 29.61 in SW 3.0 mph 5.8 mph 81 % 0.00 in
00:25 56.8 °F 50.4 °F 29.61 in WNW 2.8 mph 10.4 mph 79 % 0.00 in
00:30 56.7 °F 49.9 °F 29.61 in West 7.6 mph 16.1 mph 78 % 0.00 in
00:35 56.6 °F 50.2 °F 29.61 in WSW 9.2 mph 11.5 mph 79 % 0.00 in
00:40 56.4 °F 49.6 °F 29.62 in West 7.6 mph 9.2 mph 78 % 0.00 in
00:45 56.2 °F 49.4 °F 29.62 in NW 4.3 mph 10.4 mph 78 % 0.00 in
00:51 56.0 °F 49.2 °F 29.62 in NNW 8.6 mph 17.3 mph 78 % 0.00 in
00:56 55.9 °F 49.1 °F 29.61 in NW 6.4 mph 11.5 mph 78 % 0.00 in
01:01 55.7 °F 48.9 °F 29.60 in North 8.5 mph 13.8 mph 78 % 0.00 in
01:06 55.6 °F 49.2 °F 29.61 in WNW 6.3 mph 11.5 mph 79 % 0.00 in
01:11 55.4 °F 48.7 °F 29.61 in NW 3.6 mph 8.1 mph 78 % 0.00 in
01:16 55.2 °F 48.8 °F 29.62 in WSW 4.6 mph 8.0 mph 79 % 0.00 in
01:21 55.1 °F 48.4 °F 29.62 in WNW 4.9 mph 10.4 mph 78 % 0.00 in
01:26 55.1 °F 48.7 °F 29.62 in West 2.5 mph 11.5 mph 79 % 0.00 in
01:31 55.1 °F 48.7 °F 29.62 in WSW 5.3 mph 9.2 mph 79 % 0.00 in
01:37 55.1 °F 48.0 °F 29.62 in SW 6.0 mph 11.5 mph 77 % 0.00 in
01:42 55.0 °F 46.1 °F 29.62 in WSW 9.1 mph 13.8 mph 72 % 0.00 in
01:47 55.0 °F 45.8 °F 29.63 in West 6.5 mph 11.5 mph 71 % 0.00 in
01:52 54.9 °F 45.7 °F 29.62 in WNW 5.4 mph 10.0 mph 71 % 0.00 in
01:57 54.8 °F 45.2 °F 29.62 in West 7.7 mph 11.5 mph 70 % 0.00 in
02:02 54.6 °F 44.2 °F 29.62 in NW 5.0 mph 11.5 mph 68 % 0.00 in
02:07 54.4 °F 43.7 °F 29.62 in West 7.9 mph 17.3 mph 67 % 0.00 in
02:12 54.1 °F 43.8 °F 29.62 in SW 1.8 mph 8.0 mph 68 % 0.00 in
02:17 53.8 °F 43.9 °F 29.62 in WSW 8.6 mph 10.0 mph 69 % 0.00 in
02:22 53.5 °F 43.6 °F 29.62 in WNW 4.2 mph 6.9 mph 69 % 0.00 in
02:28 53.2 °F 43.7 °F 29.63 in West 5.9 mph 13.8 mph 70 % 0.00 in
02:33 53.0 °F 43.5 °F 29.63 in North 10.2 mph 11.5 mph 70 % 0.00 in
02:38 52.8 °F 43.7 °F 29.63 in SW 5.9 mph 13.8 mph 71 % 0.00 in
02:43 52.6 °F 43.8 °F 29.63 in NW 6.0 mph 11.5 mph 72 % 0.00 in
02:48 52.5 °F 44.1 °F 29.64 in WSW 3.9 mph 10.4 mph 73 % 0.00 in
02:53 52.3 °F 43.5 °F 29.64 in WNW 6.5 mph 16.1 mph 72 % 0.00 in
02:58 52.0 °F 43.3 °F 29.64 in WNW 8.8 mph 12.0 mph 72 % 0.00 in
03:03 51.9 °F 43.2 °F 29.64 in SSW 4.6 mph 8.1 mph 72 % 0.00 in
03:08 51.7 °F 43.0 °F 29.64 in West 6.1 mph 12.7 mph 72 % 0.00 in
03:13 51.5 °F 43.1 °F 29.64 in NNW 7.1 mph 16.1 mph 73 % 0.00 in
03:19 51.4 °F 43.4 °F 29.64 in WNW 3.1 mph 9.2 mph 74 % 0.00 in
03:24 51.4 °F 43.4 °F 29.64 in WSW 5.7 mph 17.3 mph 74 % 0.00 in
03:29 51.2 °F 42.8 °F 29.64 in WSW 7.0 mph 12.7 mph 73 % 0.00 in
03:34 51.1 °F 42.7 °F 29.65 in WNW 8.3 mph 11.5 mph 73 % 0.00 in
03:39 51.1 °F 42.7 °F 29.65 in West 5.1 mph 10.4 mph 73 % 0.00 in
03:44 50.9 °F 42.6 °F 29.65 in SW 5.5 mph 11.0 mph 73 % 0.00 in
03:49 50.9 °F 42.2 °F 29.65 in WNW 4.9 mph 12.7 mph 72 % 0.00 in
03:54 50.8 °F 42.1 °F 29.65 in WSW 6.3 mph 12.7 mph 72 % 0.00 in
03:59 50.7 °F 41.6 °F 29.65 in NW 8.3 mph 12.7 mph 71 % 0.00 in
04:10 50.6 °F 41.9 °F 29.66 in WSW 5.9 mph 12.7 mph 72 % 0.00 in
04:15 50.5 °F 41.4 °F 29.66 in NW 5.2 mph 21.9 mph 71 % 0.00 in
04:20 50.3 °F 40.9 °F 29.66 in NW 6.8 mph 13.8 mph 70 % 0.00 in
04:25 50.2 °F 41.2 °F 29.66 in WNW 11.1 mph 19.6 mph 71 % 0.00 in
04:30 50.1 °F 41.1 °F 29.66 in South 6.9 mph 17.3 mph 71 % 0.00 in
04:35 49.9 °F 40.9 °F 29.66 in West 10.4 mph 18.0 mph 71 % 0.00 in
04:40 49.9 °F 41.2 °F 29.66 in WNW 7.6 mph 15.0 mph 72 % 0.00 in
04:45 49.7 °F 41.0 °F 29.66 in WNW 5.0 mph 11.5 mph 72 % 0.00 in
04:50 49.6 °F 40.9 °F 29.67 in NW 7.5 mph 17.3 mph 72 % 0.00 in
04:55 49.5 °F 40.8 °F 29.67 in WNW 3.0 mph 10.4 mph 72 % 0.00 in
05:01 49.4 °F 40.7 °F 29.67 in NW 3.3 mph 11.5 mph 72 % 0.00 in
05:06 49.3 °F 40.7 °F 29.67 in WSW 5.8 mph 11.5 mph 72 % 0.00 in
05:11 49.2 °F 40.6 °F 29.68 in West 5.8 mph 10.4 mph 72 % 0.00 in
05:16 49.1 °F 40.8 °F 29.68 in WNW 4.0 mph 7.0 mph 73 % 0.00 in
05:21 49.0 °F 40.7 °F 29.68 in West 2.9 mph 5.8 mph 73 % 0.00 in
05:26 48.9 °F 40.6 °F 29.68 in SW 7.4 mph 16.1 mph 73 % 0.00 in
05:31 48.8 °F 40.9 °F 29.69 in West 7.1 mph 11.5 mph 74 % 0.00 in
05:36 48.7 °F 40.8 °F 29.69 in WNW 3.1 mph 9.2 mph 74 % 0.00 in
05:41 48.7 °F 40.8 °F 29.69 in WSW 4.9 mph 9.0 mph 74 % 0.00 in
05:46 48.6 °F 40.0 °F 29.69 in WNW 6.6 mph 11.5 mph 72 % 0.00 in
05:52 48.5 °F 39.9 °F 29.70 in WSW 4.8 mph 10.4 mph 72 % 0.00 in
05:57 48.5 °F 40.2 °F 29.70 in SSW 3.5 mph 9.2 mph 73 % 0.00 in
06:02 48.4 °F 39.8 °F 29.71 in WNW 6.0 mph 11.5 mph 72 % 0.00 in
06:07 48.4 °F 39.8 °F 29.71 in SW 2.8 mph 5.8 mph 72 % 0.00 in
06:12 48.4 °F 39.8 °F 29.71 in SW 5.8 mph 11.0 mph 72 % 0.00 in
06:22 48.7 °F 39.7 °F 29.72 in West 6.6 mph 11.5 mph 71 % 0.00 in
06:27 48.9 °F 39.5 °F 29.72 in SW 4.1 mph 11.5 mph 70 % 0.00 in
06:32 49.1 °F 39.7 °F 29.72 in WSW 4.7 mph 8.1 mph 70 % 0.00 in
06:37 49.3 °F 39.6 °F 29.72 in WSW 6.0 mph 11.5 mph 69 % 0.00 in
06:48 49.8 °F 40.0 °F 29.73 in WSW 5.2 mph 15.0 mph 69 % 0.00 in
06:53 50.0 °F 39.8 °F 29.73 in SW 8.7 mph 13.8 mph 68 % 0.00 in
07:03 50.4 °F 39.5 °F 29.74 in WNW 8.6 mph 16.1 mph 66 % 0.00 in
07:08 50.6 °F 40.0 °F 29.74 in WNW 6.4 mph 11.5 mph 67 % 0.00 in
07:13 50.8 °F 39.8 °F 29.74 in West 8.2 mph 12.7 mph 66 % 0.00 in
07:18 51.0 °F 40.0 °F 29.74 in SW 4.1 mph 11.5 mph 66 % 0.00 in
07:23 51.1 °F 40.1 °F 29.73 in WSW 9.2 mph 15.0 mph 66 % 0.00 in
07:28 51.2 °F 39.8 °F 29.74 in NW 5.8 mph 9.2 mph 65 % 0.00 in
07:34 51.4 °F 40.0 °F 29.74 in WNW 9.0 mph 17.0 mph 65 % 0.00 in
07:39 51.4 °F 39.6 °F 29.74 in West 7.1 mph 13.8 mph 64 % 0.00 in
07:44 51.5 °F 39.7 °F 29.75 in WSW 4.9 mph 15.0 mph 64 % 0.00 in
07:49 51.5 °F 39.3 °F 29.75 in WSW 4.4 mph 8.1 mph 63 % 0.00 in
07:54 51.6 °F 39.0 °F 29.75 in WNW 6.1 mph 11.5 mph 62 % 0.00 in
07:59 51.8 °F 39.2 °F 29.75 in WSW 9.1 mph 14.0 mph 62 % 0.00 in
08:04 52.0 °F 39.8 °F 29.75 in SW 2.7 mph 9.0 mph 63 % 0.00 in
08:09 52.3 °F 39.7 °F 29.75 in West 7.1 mph 12.7 mph 62 % 0.00 in
08:14 52.6 °F 39.9 °F 29.75 in West 6.0 mph 12.7 mph 62 % 0.00 in
08:19 52.8 °F 40.1 °F 29.75 in SW 8.9 mph 11.5 mph 62 % 0.00 in
08:25 53.0 °F 39.9 °F 29.75 in West 3.7 mph 8.1 mph 61 % 0.00 in
08:30 53.3 °F 39.8 °F 29.75 in SSW 9.8 mph 15.0 mph 60 % 0.00 in
08:35 53.4 °F 40.3 °F 29.75 in West 3.8 mph 11.5 mph 61 % 0.00 in
08:40 53.6 °F 40.9 °F 29.75 in WSW 3.8 mph 14.0 mph 62 % 0.00 in
08:45 53.7 °F 40.1 °F 29.75 in WSW 8.9 mph 16.1 mph 60 % 0.00 in
08:50 53.8 °F 40.2 °F 29.75 in SW 9.2 mph 16.1 mph 60 % 0.00 in
09:00 54.3 °F 39.8 °F 29.75 in West 7.3 mph 19.6 mph 58 % 0.00 in
09:05 54.4 °F 39.9 °F 29.75 in WNW 6.2 mph 16.1 mph 58 % 0.00 in
09:16 55.0 °F 40.9 °F 29.75 in West 3.1 mph 10.4 mph 59 % 0.00 in
09:21 55.4 °F 41.3 °F 29.75 in NW 3.1 mph 11.5 mph 59 % 0.00 in
09:26 55.8 °F 41.7 °F 29.75 in WNW 3.4 mph 11.5 mph 59 % 0.00 in
09:31 56.2 °F 40.7 °F 29.75 in West 6.3 mph 11.5 mph 56 % 0.00 in
09:36 56.6 °F 41.5 °F 29.75 in NW 7.2 mph 15.0 mph 57 % 0.00 in
09:41 56.8 °F 40.8 °F 29.75 in WSW 7.0 mph 12.0 mph 55 % 0.00 in
09:46 57.1 °F 41.5 °F 29.75 in WSW 5.6 mph 12.0 mph 56 % 0.00 in
09:51 57.6 °F 42.0 °F 29.75 in WSW 5.9 mph 8.0 mph 56 % 0.00 in
09:56 57.7 °F 40.7 °F 29.75 in WSW 7.7 mph 16.1 mph 53 % 0.00 in
10:01 58.0 °F 41.0 °F 29.75 in West 3.9 mph 11.5 mph 53 % 0.00 in
10:07 58.4 °F 41.3 °F 29.74 in SW 7.4 mph 7.4 mph 53 % 0.00 in
10:12 59.1 °F 41.5 °F 29.74 in WSW 7.9 mph 11.5 mph 52 % 0.00 in
10:17 59.6 °F 41.4 °F 29.75 in WNW 8.8 mph 13.8 mph 51 % 0.00 in
10:22 59.7 °F 40.5 °F 29.74 in West 4.8 mph 12.7 mph 49 % 0.00 in
10:27 59.9 °F 41.7 °F 29.74 in WSW 7.1 mph 18.4 mph 51 % 0.00 in
10:32 60.4 °F 42.2 °F 29.74 in SW 7.4 mph 13.0 mph 51 % 0.00 in
10:37 60.5 °F 41.2 °F 29.74 in West 5.0 mph 11.5 mph 49 % 0.00 in
10:42 60.7 °F 41.4 °F 29.74 in WNW 6.1 mph 11.5 mph 49 % 0.00 in
10:47 60.9 °F 40.5 °F 29.74 in NW 7.4 mph 12.7 mph 47 % 0.00 in
10:58 61.1 °F 41.8 °F 29.74 in NW 6.5 mph 12.7 mph 49 % 0.00 in
11:03 61.1 °F 41.2 °F 29.74 in WNW 4.9 mph 11.5 mph 48 % 0.00 in
11:08 61.2 °F 40.8 °F 29.74 in NW 10.0 mph 15.0 mph 47 % 0.00 in
11:13 60.8 °F 40.4 °F 29.74 in WSW 5.9 mph 12.7 mph 47 % 0.00 in
11:18 60.5 °F 40.2 °F 29.74 in WSW 3.8 mph 9.0 mph 47 % 0.00 in
11:23 60.4 °F 41.1 °F 29.73 in WSW 5.0 mph 9.2 mph 49 % 0.00 in
11:28 60.5 °F 40.7 °F 29.74 in SSW 4.2 mph 5.8 mph 48 % 0.00 in
11:33 60.6 °F 41.8 °F 29.74 in West 4.1 mph 8.1 mph 50 % 0.00 in
11:38 59.9 °F 40.1 °F 29.74 in SSW 3.5 mph 10.4 mph 48 % 0.00 in
11:43 59.1 °F 39.9 °F 29.74 in SW 1.5 mph 6.0 mph 49 % 0.00 in
11:49 58.3 °F 39.7 °F 29.74 in WSW 3.3 mph 5.8 mph 50 % 0.00 in
11:54 57.7 °F 40.2 °F 29.74 in WNW 0.6 mph 5.8 mph 52 % 0.00 in
11:59 57.3 °F 40.3 °F 29.73 in NW 3.3 mph 5.8 mph 53 % 0.00 in
12:04 56.9 °F 40.4 °F 29.73 in WNW 1.5 mph 3.0 mph 54 % 0.00 in
12:09 56.9 °F 40.4 °F 29.73 in WNW 3.8 mph 8.1 mph 54 % 0.00 in
12:14 56.9 °F 39.9 °F 29.73 in West 3.1 mph 4.6 mph 53 % 0.00 in
12:19 56.8 °F 39.4 °F 29.73 in WNW 6.4 mph 11.0 mph 52 % 0.00 in
12:24 56.4 °F 38.0 °F 29.73 in WNW 7.7 mph 10.4 mph 50 % 0.00 in
12:29 56.0 °F 39.6 °F 29.73 in WSW 2.5 mph 6.9 mph 54 % 0.00 in
12:34 55.4 °F 38.5 °F 29.73 in West 3.7 mph 11.5 mph 53 % 0.00 in
12:40 55.0 °F 40.0 °F 29.73 in WSW 7.4 mph 11.5 mph 57 % 0.00 in
12:45 54.6 °F 39.7 °F 29.73 in WSW 5.3 mph 13.8 mph 57 % 0.00 in
12:50 54.3 °F 39.4 °F 29.73 in WNW 3.4 mph 9.2 mph 57 % 0.00 in
12:55 54.1 °F 40.1 °F 29.73 in WSW 2.9 mph 5.8 mph 59 % 0.00 in
13:00 54.0 °F 40.0 °F 29.73 in WNW 3.8 mph 9.2 mph 59 % 0.00 in
13:05 54.0 °F 40.0 °F 29.73 in WNW 1.9 mph 4.6 mph 59 % 0.00 in
13:10 54.1 °F 40.1 °F 29.73 in WNW 2.4 mph 8.0 mph 59 % 0.00 in
13:15 54.4 °F 40.8 °F 29.73 in WNW 4.0 mph 9.2 mph 60 % 0.00 in
13:20 54.8 °F 41.6 °F 29.73 in WNW 4.1 mph 4.6 mph 61 % 0.00 in
13:31 55.1 °F 41.5 °F 29.73 in NW 3.7 mph 10.4 mph 60 % 0.00 in
13:36 55.3 °F 41.2 °F 29.73 in WNW 3.8 mph 8.1 mph 59 % 0.00 in
13:41 55.4 °F 40.4 °F 29.74 in WNW 7.1 mph 13.8 mph 57 % 0.00 in
13:46 55.4 °F 40.9 °F 29.74 in WNW 8.8 mph 13.0 mph 58 % 0.00 in
13:51 55.2 °F 40.2 °F 29.73 in WNW 4.2 mph 9.2 mph 57 % 0.00 in
13:56 54.9 °F 39.9 °F 29.73 in NW 7.5 mph 13.0 mph 57 % 0.00 in
14:01 54.4 °F 39.0 °F 29.74 in West 6.9 mph 11.5 mph 56 % 0.00 in
14:06 54.0 °F 39.1 °F 29.74 in WNW 7.8 mph 12.7 mph 57 % 0.00 in
14:11 53.7 °F 38.8 °F 29.74 in NW 5.8 mph 8.0 mph 57 % 0.00 in
14:16 53.7 °F 39.7 °F 29.74 in WNW 6.4 mph 6.9 mph 59 % 0.00 in
14:22 54.1 °F 39.2 °F 29.74 in NW 5.1 mph 13.0 mph 57 % 0.00 in
14:32 54.2 °F 35.4 °F 29.74 in WSW 7.1 mph 12.7 mph 49 % 0.00 in
14:37 54.3 °F 35.5 °F 29.74 in West 5.4 mph 11.5 mph 49 % 0.00 in
14:42 54.9 °F 35.0 °F 29.74 in WSW 6.5 mph 12.7 mph 47 % 0.00 in
14:47 55.6 °F 34.6 °F 29.74 in North 6.0 mph 12.7 mph 45 % 0.00 in
14:57 56.3 °F 35.2 °F 29.74 in NW 6.7 mph 9.2 mph 45 % 0.00 in
15:02 57.0 °F 35.3 °F 29.73 in West 11.0 mph 19.6 mph 44 % 0.00 in
15:08 57.8 °F 35.4 °F 29.73 in WSW 5.0 mph 8.1 mph 43 % 0.00 in
15:13 58.2 °F 35.8 °F 29.74 in West 11.1 mph 19.6 mph 43 % 0.00 in
15:18 58.3 °F 37.0 °F 29.73 in WSW 6.9 mph 13.0 mph 45 % 0.00 in
15:23 58.0 °F 35.6 °F 29.74 in WSW 6.5 mph 15.0 mph 43 % 0.00 in
15:28 57.8 °F 36.6 °F 29.74 in West 6.7 mph 9.2 mph 45 % 0.00 in
15:33 58.0 °F 37.3 °F 29.74 in WNW 7.5 mph 13.0 mph 46 % 0.00 in
15:38 58.3 °F 36.5 °F 29.74 in NNW 9.7 mph 15.0 mph 44 % 0.00 in
15:43 58.2 °F 35.8 °F 29.74 in WNW 5.1 mph 13.8 mph 43 % 0.00 in
15:48 58.0 °F 36.2 °F 29.74 in SW 8.9 mph 11.0 mph 44 % 0.00 in
15:53 57.7 °F 35.9 °F 29.74 in West 4.1 mph 8.1 mph 44 % 0.00 in
15:59 57.7 °F 37.0 °F 29.74 in WNW 5.3 mph 11.5 mph 46 % 0.00 in
16:04 57.7 °F 37.0 °F 29.74 in WNW 6.3 mph 11.5 mph 46 % 0.00 in
16:09 57.5 °F 37.4 °F 29.74 in SW 2.9 mph 6.9 mph 47 % 0.00 in
16:14 57.2 °F 37.7 °F 29.74 in NW 3.2 mph 6.9 mph 48 % 0.00 in
16:19 56.8 °F 37.3 °F 29.74 in West 8.1 mph 11.5 mph 48 % 0.00 in
16:24 56.6 °F 37.6 °F 29.74 in WNW 7.0 mph 12.7 mph 49 % 0.00 in
16:29 56.5 °F 37.0 °F 29.74 in WNW 7.3 mph 11.5 mph 48 % 0.00 in
16:34 56.8 °F 37.8 °F 29.74 in North 4.0 mph 10.4 mph 49 % 0.00 in
16:39 57.2 °F 37.1 °F 29.74 in NW 5.7 mph 11.5 mph 47 % 0.00 in
16:50 56.9 °F 36.9 °F 29.74 in WSW 5.8 mph 10.4 mph 47 % 0.00 in
16:55 56.6 °F 37.1 °F 29.74 in WNW 1.6 mph 6.0 mph 48 % 0.00 in
17:00 56.5 °F 36.5 °F 29.75 in West 3.7 mph 8.1 mph 47 % 0.00 in
17:05 56.4 °F 34.2 °F 29.75 in WSW 9.7 mph 17.3 mph 43 % 0.00 in
17:10 56.2 °F 34.6 °F 29.75 in WNW 3.1 mph 11.5 mph 44 % 0.00 in
17:15 56.2 °F 34.6 °F 29.75 in SW 7.8 mph 12.7 mph 44 % 0.00 in
17:20 56.2 °F 35.1 °F 29.75 in SSW 3.1 mph 7.0 mph 45 % 0.00 in
17:25 56.2 °F 34.6 °F 29.75 in NNW 5.7 mph 9.2 mph 44 % 0.00 in
17:30 56.0 °F 34.4 °F 29.75 in WNW 4.2 mph 11.5 mph 44 % 0.00 in
17:35 56.1 °F 35.6 °F 29.75 in SSW 1.0 mph 4.6 mph 46 % 0.00 in
17:41 56.3 °F 34.6 °F 29.75 in WNW 2.0 mph 6.0 mph 44 % 0.00 in
17:46 56.7 °F 34.4 °F 29.75 in SW 5.9 mph 12.0 mph 43 % 0.00 in
17:51 56.9 °F 34.0 °F 29.75 in West 5.5 mph 10.4 mph 42 % 0.00 in
17:56 57.1 °F 33.0 °F 29.75 in North 3.8 mph 9.2 mph 40 % 0.00 in
18:01 57.0 °F 32.3 °F 29.76 in West 4.1 mph 8.1 mph 39 % 0.00 in
18:06 56.9 °F 32.2 °F 29.76 in SW 5.5 mph 12.7 mph 39 % 0.00 in
18:11 56.7 °F 33.2 °F 29.76 in SW 6.4 mph 11.5 mph 41 % 0.00 in
18:16 56.6 °F 33.2 °F 29.76 in SSW 8.2 mph 12.7 mph 41 % 0.00 in
18:21 56.3 °F 32.3 °F 29.76 in WNW 7.6 mph 13.8 mph 40 % 0.00 in
18:26 56.2 °F 33.4 °F 29.76 in West 2.3 mph 6.9 mph 42 % 0.00 in
18:32 56.0 °F 35.5 °F 29.77 in North 3.0 mph 6.9 mph 46 % 0.00 in
18:37 55.8 °F 36.4 °F 29.77 in WNW 4.4 mph 8.1 mph 48 % 0.00 in
18:42 55.6 °F 36.7 °F 29.77 in WNW 2.8 mph 10.4 mph 49 % 0.00 in
18:47 55.4 °F 34.9 °F 29.77 in West 4.0 mph 9.2 mph 46 % 0.00 in
18:52 55.2 °F 36.9 °F 29.78 in WSW 11.3 mph 18.4 mph 50 % 0.00 in
18:57 54.9 °F 37.1 °F 29.78 in SSW 5.7 mph 9.2 mph 51 % 0.00 in
19:02 54.5 °F 37.2 °F 29.78 in SSW 8.1 mph 21.9 mph 52 % 0.00 in
19:07 54.3 °F 37.0 °F 29.79 in SW 6.1 mph 12.7 mph 52 % 0.00 in
19:12 54.2 °F 37.4 °F 29.79 in South 7.0 mph 11.5 mph 53 % 0.00 in
19:17 54.1 °F 37.8 °F 29.79 in WNW 6.4 mph 18.4 mph 54 % 0.00 in
19:23 53.9 °F 38.1 °F 29.79 in SW 7.5 mph 10.0 mph 55 % 0.00 in
19:28 53.6 °F 37.8 °F 29.79 in WSW 3.6 mph 8.1 mph 55 % 0.00 in
19:33 53.4 °F 38.1 °F 29.80 in WSW 9.7 mph 12.7 mph 56 % 0.00 in
19:38 53.1 °F 37.3 °F 29.80 in SW 9.6 mph 16.0 mph 55 % 0.00 in
19:43 52.9 °F 37.6 °F 29.81 in SW 6.9 mph 11.5 mph 56 % 0.00 in
19:48 52.7 °F 37.4 °F 29.81 in WSW 6.6 mph 15.0 mph 56 % 0.00 in
19:53 52.4 °F 37.6 °F 29.81 in SW 7.5 mph 18.4 mph 57 % 0.00 in
19:58 52.1 °F 37.3 °F 29.81 in SW 9.3 mph 22.0 mph 57 % 0.00 in
20:03 51.8 °F 37.9 °F 29.82 in SW 6.6 mph 19.0 mph 59 % 0.00 in
20:08 51.6 °F 38.6 °F 29.82 in West 5.3 mph 8.0 mph 61 % 0.00 in
20:14 51.3 °F 37.9 °F 29.82 in SW 9.0 mph 16.1 mph 60 % 0.00 in
20:24 51.0 °F 37.6 °F 29.83 in WSW 8.2 mph 20.7 mph 60 % 0.00 in
20:34 50.6 °F 36.8 °F 29.83 in West 5.8 mph 10.4 mph 59 % 0.00 in
20:39 50.4 °F 35.7 °F 29.83 in West 6.9 mph 11.5 mph 57 % 0.00 in
20:44 50.2 °F 35.1 °F 29.84 in WSW 6.2 mph 9.2 mph 56 % 0.00 in
20:49 50.1 °F 35.9 °F 29.84 in SW 2.0 mph 15.0 mph 58 % 0.00 in
20:54 49.9 °F 35.7 °F 29.85 in SW 6.5 mph 13.8 mph 58 % 0.00 in
20:59 49.8 °F 36.9 °F 29.85 in WNW 4.3 mph 15.0 mph 61 % 0.00 in
21:05 49.6 °F 37.1 °F 29.85 in SW 5.7 mph 11.0 mph 62 % 0.00 in
21:10 49.5 °F 37.4 °F 29.86 in West 8.3 mph 17.0 mph 63 % 0.00 in
21:15 49.3 °F 38.0 °F 29.87 in WNW 4.2 mph 12.7 mph 65 % 0.00 in
21:20 49.1 °F 38.2 °F 29.87 in West 5.5 mph 10.4 mph 66 % 0.00 in
21:25 49.0 °F 38.5 °F 29.87 in WSW 4.9 mph 10.4 mph 67 % 0.00 in
21:30 48.9 °F 38.8 °F 29.88 in WSW 5.3 mph 12.0 mph 68 % 0.00 in
21:35 48.8 °F 38.7 °F 29.87 in SW 6.2 mph 13.8 mph 68 % 0.00 in
21:40 48.7 °F 38.2 °F 29.88 in SSW 5.8 mph 17.3 mph 67 % 0.00 in
21:45 48.6 °F 38.5 °F 29.88 in WNW 6.9 mph 12.7 mph 68 % 0.00 in
21:50 48.5 °F 38.4 °F 29.89 in West 8.3 mph 16.1 mph 68 % 0.00 in
21:56 48.5 °F 38.4 °F 29.89 in West 8.7 mph 10.0 mph 68 % 0.00 in
22:01 48.5 °F 38.4 °F 29.89 in SW 7.9 mph 15.0 mph 68 % 0.00 in
22:02 48.5 °F 38.4 °F 29.89 in WNW 3.9 mph 15.0 mph 68 % 0.00 in
22:07 48.5 °F 38.4 °F 29.89 in WSW 4.9 mph 11.5 mph 68 % 0.00 in
22:12 48.5 °F 38.4 °F 29.89 in WNW 5.9 mph 11.5 mph 68 % 0.00 in
22:17 48.5 °F 38.0 °F 29.89 in West 8.1 mph 12.7 mph 67 % 0.00 in
22:27 48.6 °F 37.0 °F 29.90 in WSW 7.6 mph 12.7 mph 64 % 0.00 in
22:32 48.6 °F 36.6 °F 29.90 in NW 7.0 mph 16.0 mph 63 % 0.00 in
22:37 48.6 °F 36.6 °F 29.90 in West 3.5 mph 10.4 mph 63 % 0.00 in
22:43 48.5 °F 35.7 °F 29.90 in WNW 10.5 mph 19.6 mph 61 % 0.00 in
22:48 48.5 °F 36.5 °F 29.91 in NW 11.5 mph 16.0 mph 63 % 0.00 in
22:53 48.5 °F 36.5 °F 29.91 in NW 11.4 mph 17.3 mph 63 % 0.00 in
23:03 48.3 °F 36.3 °F 29.91 in WSW 7.2 mph 15.0 mph 63 % 0.00 in
23:08 48.2 °F 35.8 °F 29.92 in WSW 7.2 mph 17.3 mph 62 % 0.00 in
23:13 48.1 °F 34.9 °F 29.92 in NW 2.8 mph 17.3 mph 60 % 0.00 in
23:18 48.0 °F 34.8 °F 29.92 in West 5.5 mph 11.5 mph 60 % 0.00 in
23:23 47.8 °F 35.0 °F 29.92 in West 3.0 mph 7.0 mph 61 % 0.00 in
23:28 47.7 °F 34.1 °F 29.93 in NNW 5.2 mph 12.7 mph 59 % 0.00 in
23:34 47.5 °F 34.7 °F 29.93 in WNW 5.8 mph 13.8 mph 61 % 0.00 in
23:39 47.4 °F 34.6 °F 29.93 in WSW 5.4 mph 6.9 mph 61 % 0.00 in
23:44 47.2 °F 34.4 °F 29.93 in WNW 6.9 mph 19.0 mph 61 % 0.00 in
23:49 47.2 °F 34.4 °F 29.93 in NW 4.8 mph 10.4 mph 61 % 0.00 in
23:54 47.1 °F 34.3 °F 29.92 in SSW 6.2 mph 11.5 mph 61 % 0.00 in
23:59 47.0 °F 33.4 °F 29.93 in WNW 7.4 mph 13.8 mph 59 % 0.00 in
Crab Meadow Weather
Compliments of Weather Underground - 2.75 mb

Script developed by  Jim McMurry - jmcmurry@mwt.net Adapted for the template by  Wim van der Kuil - Leuven-Template.eu

Recycling: We use over 80,000,000,000 aluminum soda cans every year.